"startDT [UTC]","vpos","CH4 [ppm]","stdev(CH4) [ppm]","CO2 [ppm]","stdev(CO2) [ppm]","H2O_reported [%]","stdev(H2O_reported)","CavityPressure [torr]","CavityTemp [C]","OutletValve","CH4_dry [ppm]","CO2_dry [ppm]","DasTemp [C]","EtalonTemp [C]","WarmBoxTemp [C]","MPVPosition","T_ECpre [C]","T_EC1 [C]","T_EC2 [C]","p_inlet [hPa]","p_in [hPa]","p_out [hPa]","T_inlet [C]","RH_inlet [%]","dwpt_inlet [C]","T_vent [C]","RH_vent [%]","dwpt_vent [C]","flow_vent [l min-1]","flow_inlet [l min-1]","dwpt_sample [C]","T_room [C]"
2015-08-17 00:00:00,0.0,1.97304,0.00364,383.589,0.221,1.4891,0.0023,140.001,45.000,34417.66803,2.00415,390.800,33.751,45.068,45.000,0.00,0.10,-272.74,-272.81,-8,1000,-7,24.5,38.7,9.5,24.3,40.0,9.8,5.73,1.87,3.8,28.2
2015-08-17 00:01:00,0.0,1.96780,0.00100,384.086,0.431,1.4897,0.0027,140.002,45.000,34417.25797,1.99819,391.292,33.753,45.068,45.000,0.00,0.10,-272.73,-272.79,-8,1000,-7,24.5,38.7,9.5,24.3,40.0,9.8,5.73,1.87,3.8,28.3
2015-08-17 00:02:00,0.0,1.96700,0.00068,383.838,0.310,1.4871,0.0022,140.001,45.000,34417.96933,1.99736,391.053,33.768,45.068,45.000,0.00,0.10,-272.73,-272.79,-8,1000,-7,24.5,38.5,9.4,24.3,39.9,9.7,5.73,1.88,3.8,28.2
2015-08-17 00:03:00,0.0,1.96561,0.00039,383.995,0.151,1.4824,0.0015,140.001,45.000,34418.66914,1.99574,391.185,33.788,45.068,45.000,0.00,0.10,-272.74,-272.80,-8,1000,-7,24.5,38.4,9.4,24.3,39.8,9.7,5.73,1.89,3.8,28.2
2015-08-17 00:04:00,0.0,1.96479,0.00051,384.103,0.123,1.4777,0.0023,139.996,45.000,34415.92243,1.99485,391.279,33.804,45.068,45.000,0.00,0.10,-272.73,-272.79,-8,1000,-7,24.6,38.2,9.4,24.3,39.6,9.6,5.73,1.90,3.8,28.2
2015-08-17 00:05:00,0.0,1.96831,0.00155,384.091,0.116,1.4746,0.0025,140.004,45.000,34417.17688,1.99795,391.233,33.812,45.067,45.000,0.00,0.10,-272.73,-272.79,-8,1000,-7,24.6,38.1,9.3,24.3,39.5,9.6,5.73,1.90,3.8,28.2
2015-08-17 00:06:00,0.0,1.97277,0.00148,383.924,0.140,1.4730,0.0026,140.000,45.000,34417.55307,2.00257,391.071,33.816,45.067,45.000,0.00,0.10,-272.73,-272.79,-8,1000,-7,24.6,38.1,9.4,24.3,39.4,9.6,5.73,1.91,3.8,28.3
2015-08-17 00:07:00,0.0,1.97606,0.00112,383.906,0.179,1.4737,0.0027,140.000,45.000,34417.93482,2.00592,391.056,33.814,45.068,45.000,0.00,0.10,-272.74,-272.80,-8,1000,-7,24.6,38.2,9.4,24.3,39.5,9.6,5.73,1.92,3.9,28.2
2015-08-17 00:08:00,0.0,1.97735,0.00059,383.498,0.320,1.4756,0.0020,140.001,45.000,34419.98779,2.00754,390.669,33.818,45.068,45.000,0.00,0.10,-272.72,-272.79,-8,1000,-7,24.6,38.3,9.4,24.3,39.5,9.6,5.73,1.92,3.9,28.2
2015-08-17 00:09:00,0.0,1.97544,0.00142,383.515,0.359,1.4794,0.0016,139.996,45.000,34417.42077,2.00565,390.663,33.814,45.068,45.000,0.00,0.10,-272.73,-272.80,-8,1000,-7,24.6,38.4,9.5,24.3,39.6,9.7,5.73,1.91,3.9,28.2
2015-08-17 00:10:00,0.0,1.97667,0.00106,383.242,0.371,1.4808,0.0012,140.000,45.000,34416.07812,2.00681,390.420,33.814,45.068,45.000,0.00,0.10,-272.73,-272.80,-8,1000,-7,24.6,38.4,9.5,24.3,39.6,9.7,5.73,1.91,3.9,28.2
2015-08-17 00:11:00,0.0,1.97797,0.00053,382.480,0.232,1.4814,0.0022,139.997,45.000,34419.10697,2.00831,389.634,33.824,45.068,45.000,0.00,0.10,-272.73,-272.79,-8,1000,-7,24.6,38.5,9.5,24.3,39.7,9.7,5.73,1.90,3.9,28.2
2015-08-17 00:12:00,0.0,1.97539,0.00147,383.073,0.323,1.4904,0.0033,140.001,45.000,34417.94619,2.00592,390.270,33.830,45.068,45.000,0.00,0.10,-272.73,-272.79,-8,1000,-7,24.6,38.8,9.6,24.3,40.0,9.8,5.73,1.90,3.9,28.2
2015-08-17 00:13:00,0.0,1.97327,0.00048,383.706,0.281,1.4961,0.0014,139.997,45.000,34418.29311,2.00387,390.955,33.819,45.068,45.000,0.00,0.10,-272.73,-272.80,-8,1000,-7,24.6,38.7,9.6,24.3,40.1,9.9,5.73,1.88,3.9,28.2
2015-08-17 00:14:00,0.0,1.97451,0.00123,383.114,0.466,1.4918,0.0020,139.998,45.000,34419.36413,2.00484,390.329,33.817,45.068,45.000,0.00,0.10,-272.74,-272.79,-8,1000,-7,24.6,38.6,9.5,24.3,39.9,9.8,5.73,1.87,3.9,28.3
2015-08-17 00:15:00,0.0,1.97419,0.00076,383.506,0.169,1.4900,0.0017,139.997,45.000,34418.23479,2.00474,390.715,33.819,45.068,45.000,0.00,0.10,-272.73,-272.79,-8,1000,-7,24.6,38.4,9.5,24.3,39.9,9.8,5.73,1.88,3.9,28.3
2015-08-17 00:16:00,0.0,1.97325,0.00090,383.785,0.139,1.4832,0.0034,140.001,45.000,34417.49349,2.00339,390.985,33.825,45.068,45.000,0.00,0.10,-272.73,-272.79,-8,1000,-7,24.6,38.1,9.4,24.3,39.6,9.7,5.73,1.87,3.9,28.3
2015-08-17 00:17:00,0.0,1.97341,0.00117,383.714,0.255,1.4730,0.0028,139.999,45.000,34419.15561,2.00351,390.842,33.844,45.068,45.000,0.00,0.10,-272.74,-272.80,-8,1000,-7,24.6,37.9,9.3,24.3,39.3,9.6,5.73,1.88,3.9,28.3
2015-08-17 00:18:00,0.0,1.97412,0.00099,383.460,0.374,1.4659,0.0027,140.001,45.000,34420.39555,2.00392,390.584,33.867,45.068,45.000,0.00,0.10,-272.73,-272.79,-8,1000,-7,24.6,37.7,9.2,24.3,39.1,9.5,5.73,1.89,3.9,28.3
2015-08-17 00:19:00,0.0,1.97220,0.00152,383.655,0.358,1.4637,0.0028,139.998,45.000,34420.71210,2.00223,390.715,33.874,45.068,45.000,0.00,0.10,-272.73,-272.79,-8,1000,-7,24.6,37.8,9.2,24.3,39.1,9.5,5.73,1.89,3.9,28.3
2015-08-17 00:20:00,0.0,1.97048,0.00068,383.735,0.237,1.4647,0.0019,140.001,45.000,34421.65017,2.00035,390.833,33.875,45.068,45.000,0.00,0.10,-272.73,-272.79,-8,1000,-7,24.6,37.7,9.2,24.3,39.1,9.5,5.73,1.90,3.9,28.3
2015-08-17 00:21:00,0.0,1.97021,0.00050,383.755,0.077,1.4603,0.0016,140.001,45.000,34419.72051,1.99988,390.827,33.873,45.068,45.000,0.00,0.10,-272.73,-272.79,-8,1000,-7,24.6,37.7,9.2,24.3,39.0,9.5,5.73,1.90,3.9,28.3
2015-08-17 00:22:00,0.0,1.97045,0.00095,383.633,0.172,1.4608,0.0026,139.999,45.000,34420.07035,2.00003,390.716,33.874,45.068,45.000,0.00,0.10,-272.72,-272.79,-8,1000,-7,24.6,37.6,9.2,24.3,38.9,9.4,5.73,1.91,3.9,28.3
2015-08-17 00:23:00,0.0,1.97296,0.00035,382.936,0.234,1.4594,0.0021,139.997,45.000,34419.26806,2.00260,390.006,33.876,45.068,45.000,0.00,0.10,-272.73,-272.80,-8,1000,-7,24.6,37.7,9.2,24.3,38.9,9.4,5.73,1.91,3.9,28.3
2015-08-17 00:24:00,0.0,1.97231,0.00052,383.431,0.270,1.4661,0.0027,140.001,45.000,34419.87089,2.00222,390.501,33.890,45.068,45.000,0.00,0.10,-272.73,-272.80,-8,1000,-7,24.6,37.9,9.3,24.3,39.1,9.5,5.73,1.91,3.9,28.3
2015-08-17 00:25:00,0.0,1.97089,0.00262,383.202,0.230,1.4709,0.0027,140.000,45.000,34418.61486,2.00113,390.322,33.885,45.068,45.000,0.00,0.10,-272.72,-272.80,-8,1000,-7,24.6,38.0,9.3,24.3,39.2,9.6,5.73,1.92,3.9,28.3
2015-08-17 00:26:00,0.0,1.96339,0.00177,383.252,0.203,1.4736,0.0017,139.999,45.000,34418.23334,1.99354,390.381,33.883,45.068,45.000,0.00,0.10,-272.73,-272.80,-8,1000,-7,24.6,38.0,9.3,24.3,39.3,9.6,5.73,1.91,3.9,28.4
2015-08-17 00:27:00,0.0,1.96219,0.00036,383.235,0.132,1.4719,0.0016,140.000,45.000,34417.61623,1.99202,390.356,33.878,45.068,45.000,0.00,0.10,-272.73,-272.80,-8,1000,-7,24.6,37.9,9.3,24.3,39.2,9.6,5.73,1.91,3.9,28.3
2015-08-17 00:28:00,0.0,1.96275,0.00031,382.977,0.230,1.4727,0.0018,139.999,45.000,34418.13284,1.99255,390.118,33.882,45.068,45.000,0.00,0.10,-272.73,-272.79,-8,1000,-7,24.7,38.1,9.4,24.3,39.2,9.6,5.73,1.91,3.9,28.3
2015-08-17 00:29:00,0.0,1.96252,0.00036,382.875,0.245,1.4770,0.0029,140.001,45.000,34420.70840,1.99252,390.001,33.888,45.068,45.000,0.00,0.10,-272.73,-272.79,-8,999,-7,24.6,38.2,9.5,24.4,39.4,9.6,5.73,1.89,4.0,28.3
2015-08-17 00:30:00,0.0,1.96245,0.00045,382.651,0.187,1.4826,0.0019,139.999,45.000,34418.51341,1.99251,389.833,33.885,45.068,45.000,0.00,0.10,-272.74,-272.80,-8,999,-7,24.6,38.3,9.5,24.3,39.5,9.7,5.73,1.89,3.9,28.3
2015-08-17 00:31:00,0.0,1.96193,0.00045,383.136,0.202,1.4839,0.0018,140.002,45.000,34418.82209,1.99202,390.291,33.934,45.068,45.000,0.00,0.10,-272.73,-272.79,-8,1000,-7,24.7,38.3,9.5,24.4,39.5,9.7,5.73,1.88,3.9,28.4
2015-08-17 00:32:00,0.0,1.96201,0.00039,383.252,0.165,1.4794,0.0033,139.994,45.000,34420.01728,1.99200,390.419,33.937,45.068,45.000,0.00,0.10,-272.73,-272.79,-8,1000,-7,24.7,37.9,9.4,24.4,39.4,9.7,5.73,1.88,4.0,28.4
2015-08-17 00:33:00,0.0,1.96215,0.00023,382.936,0.157,1.4735,0.0030,140.004,45.000,34423.88807,1.99203,390.060,33.938,45.068,45.000,0.00,0.10,-272.73,-272.80,-8,1000,-7,24.7,37.9,9.3,24.4,39.2,9.6,5.73,1.88,4.0,28.4
2015-08-17 00:34:00,0.0,1.96199,0.00036,382.820,0.188,1.4750,0.0020,140.000,45.000,34424.02783,1.99188,389.963,33.938,45.068,45.000,0.00,0.10,-272.73,-272.80,-8,999,-7,24.6,38.0,9.4,24.4,39.3,9.6,5.73,1.88,4.0,28.4
2015-08-17 00:35:00,0.0,1.96182,0.00044,382.850,0.097,1.4787,0.0016,140.000,45.000,34421.50508,1.99176,389.986,33.941,45.068,45.000,0.00,0.10,-272.72,-272.79,-8,1000,-7,24.7,38.0,9.4,24.4,39.3,9.7,5.73,1.88,4.0,28.4
2015-08-17 00:36:00,0.0,1.96205,0.00031,383.058,0.092,1.4764,0.0021,140.001,45.000,34423.10710,1.99199,390.194,33.941,45.068,45.000,0.00,0.10,-272.73,-272.79,-8,999,-7,24.7,38.0,9.4,24.4,39.3,9.6,5.73,1.88,4.0,28.4
2015-08-17 00:37:00,0.0,1.96230,0.00031,383.150,0.086,1.4754,0.0025,139.999,45.000,34420.85111,1.99215,390.294,33.955,45.068,45.000,0.00,0.10,-272.74,-272.80,-8,1000,-7,24.7,37.8,9.3,24.4,39.2,9.6,5.73,1.88,4.0,28.4
2015-08-17 00:38:00,0.0,1.96211,0.00038,382.890,0.150,1.4716,0.0015,139.999,45.000,34423.76992,1.99197,390.012,33.986,45.068,45.000,0.00,0.10,-272.73,-272.79,-8,1000,-7,24.7,37.8,9.3,24.4,39.1,9.6,5.73,1.88,4.0,28.4
2015-08-17 00:39:00,0.0,1.96174,0.00049,382.580,0.215,1.4741,0.0017,140.002,45.000,34423.59440,1.99167,389.693,33.995,45.068,45.000,0.00,0.10,-272.73,-272.79,-8,999,-7,24.7,38.0,9.4,24.4,39.2,9.6,5.73,1.89,4.0,28.5
2015-08-17 00:40:00,0.0,1.96120,0.00038,382.828,0.292,1.4789,0.0026,139.999,45.000,34422.18028,1.99115,389.969,33.987,45.068,45.000,0.00,0.10,-272.73,-272.80,-8,999,-7,24.7,38.0,9.4,24.4,39.3,9.6,5.73,1.89,4.0,28.4
2015-08-17 00:41:00,0.0,1.96161,0.00041,382.821,0.165,1.4717,0.0042,140.001,45.000,34421.28865,1.99143,389.954,33.999,45.068,45.000,0.00,0.10,-272.73,-272.80,-8,999,-7,24.7,37.5,9.2,24.4,39.1,9.5,5.73,1.89,4.0,28.4
2015-08-17 00:42:00,0.0,1.96159,0.00029,382.780,0.299,1.4643,0.0021,140.002,45.000,34419.17441,1.99123,389.860,34.000,45.068,45.000,0.00,0.10,-272.73,-272.79,-8,1000,-7,24.7,37.6,9.2,24.4,38.9,9.5,5.73,1.90,4.0,28.4
2015-08-17 00:43:00,0.0,1.96117,0.00034,382.636,0.203,1.4650,0.0021,140.003,45.000,34419.87228,1.99086,389.711,34.000,45.068,45.000,0.00,0.10,-272.73,-272.79,-8,999,-7,24.7,37.6,9.3,24.4,38.9,9.5,5.73,1.90,4.0,28.5
2015-08-17 00:44:00,0.0,1.96116,0.00039,382.663,0.336,1.4684,0.0030,140.004,45.000,34421.97881,1.99087,389.730,34.000,45.068,45.000,0.00,0.10,-272.74,-272.80,-8,999,-7,24.7,37.7,9.3,24.4,38.9,9.6,5.73,1.90,4.0,28.4
2015-08-17 00:45:00,0.0,1.96187,0.00028,383.039,0.126,1.4623,0.0064,139.997,45.000,34417.93831,1.99148,390.112,34.000,45.068,45.000,0.00,0.10,-272.73,-272.79,-8,999,-7,24.7,37.1,9.1,24.4,38.7,9.4,5.73,1.91,4.0,28.5
2015-08-17 00:46:00,0.0,1.96197,0.00032,382.991,0.165,1.4476,0.0023,139.994,45.000,34418.33343,1.99126,389.999,34.000,45.068,45.000,0.00,0.10,-272.73,-272.79,-8,1000,-7,24.7,36.9,9.0,24.4,38.3,9.3,5.73,1.90,4.0,28.5
2015-08-17 00:47:00,0.0,1.96140,0.00047,382.923,0.197,1.4452,0.0025,139.997,45.000,34417.07881,1.99068,389.893,34.000,45.068,45.000,0.00,0.10,-272.73,-272.79,-9,999,-7,24.7,36.9,9.0,24.4,38.3,9.3,5.73,1.90,4.0,28.5
2015-08-17 00:48:00,0.0,1.96175,0.00051,383.003,0.258,1.4403,0.0024,140.000,45.000,34424.70614,1.99083,389.947,34.004,45.068,45.000,0.00,0.10,-272.73,-272.80,-9,1000,-7,24.7,36.7,8.9,24.4,38.0,9.2,5.73,1.90,4.0,28.5
2015-08-17 00:49:00,0.0,1.96253,0.00041,383.095,0.107,1.4366,0.0027,140.001,45.000,34424.65897,1.99160,390.038,34.037,45.068,45.000,0.00,0.10,-272.72,-272.80,-8,1000,-7,24.7,36.6,8.9,24.5,38.0,9.2,5.73,1.90,4.0,28.5
2015-08-17 00:50:00,0.0,1.96249,0.00036,383.125,0.104,1.4309,0.0041,140.003,45.000,34425.15964,1.99146,390.038,34.054,45.068,45.000,0.00,0.10,-272.73,-272.80,-8,1000,-7,24.8,36.4,8.8,24.5,37.8,9.1,5.73,1.90,4.0,28.6
2015-08-17 00:51:00,0.0,1.96310,0.00046,383.348,0.128,1.4251,0.0029,140.002,45.000,34425.26914,1.99191,390.229,34.051,45.068,45.000,0.00,0.10,-272.73,-272.80,-8,999,-7,24.8,36.2,8.7,24.5,37.6,9.0,5.73,1.90,4.1,28.6
2015-08-17 00:52:00,0.0,1.96342,0.00026,383.278,0.152,1.4149,0.0034,139.999,45.000,34423.37664,1.99205,390.119,34.055,45.068,45.000,0.00,0.10,-272.72,-272.79,-8,999,-7,24.8,35.9,8.7,24.5,37.3,8.9,5.73,1.90,4.1,28.5
2015-08-17 00:53:00,0.0,1.96332,0.00056,383.356,0.207,1.4132,0.0025,139.998,45.000,34423.68059,1.99189,390.176,34.061,45.068,45.000,0.00,0.10,-272.73,-272.79,-8,1000,-7,24.8,35.9,8.7,24.5,37.2,8.9,5.73,1.90,4.1,28.5
2015-08-17 00:54:00,0.0,1.96350,0.00044,383.152,0.167,1.4071,0.0024,139.998,45.000,34422.55393,1.99202,389.940,34.063,45.068,45.000,0.00,0.10,-272.74,-272.80,-8,1000,-7,24.8,35.8,8.6,24.5,37.1,8.9,5.73,1.90,4.1,28.5
2015-08-17 00:55:00,0.0,1.96344,0.00035,383.345,0.132,1.4069,0.0023,139.999,45.000,34422.94640,1.99189,390.141,34.068,45.068,45.000,0.00,0.10,-272.73,-272.79,-8,1000,-7,24.8,35.7,8.6,24.5,37.0,8.8,5.73,1.90,4.1,28.5
2015-08-17 00:56:00,0.0,1.96344,0.00036,383.407,0.163,1.4045,0.0025,139.999,45.000,34423.02320,1.99185,390.192,34.064,45.068,45.000,0.00,0.10,-272.73,-272.79,-8,1000,-7,24.8,35.6,8.5,24.5,36.9,8.8,5.73,1.89,4.1,28.5
2015-08-17 00:57:00,0.0,1.96335,0.00032,383.356,0.149,1.4027,0.0025,139.999,45.000,34424.84292,1.99173,390.125,34.074,45.068,45.000,0.00,0.10,-272.74,-272.80,-8,1000,-7,24.8,35.6,8.5,24.5,36.9,8.8,5.73,1.89,4.1,28.4
2015-08-17 00:58:00,0.0,1.96328,0.00044,383.186,0.136,1.4059,0.0026,139.997,45.000,34421.94175,1.99167,389.967,34.080,45.068,45.000,0.00,0.10,-272.73,-272.80,-8,1000,-7,24.8,35.7,8.6,24.5,36.9,8.8,5.73,1.89,4.1,28.4
2015-08-17 00:59:00,0.0,1.96332,0.00037,383.394,0.115,1.4052,0.0037,140.002,45.000,34422.78397,1.99180,390.190,34.097,45.068,45.000,0.00,0.10,-272.73,-272.79,-9,1000,-7,24.8,35.5,8.5,24.5,36.9,8.8,5.73,1.89,4.1,28.4
2015-08-17 01:00:00,0.0,1.96266,0.00025,383.139,0.131,1.4002,0.0024,140.001,45.000,34425.44261,1.99098,389.891,34.121,45.068,45.000,0.00,0.10,-272.73,-272.79,-9,999,-7,24.8,35.6,8.6,24.5,36.8,8.8,5.73,1.89,4.1,28.5
2015-08-17 01:01:00,0.0,1.96193,0.00037,383.212,0.141,1.4043,0.0029,140.003,45.000,34425.34727,1.99038,389.991,34.122,45.068,45.000,0.00,0.10,-272.73,-272.79,-9,999,-7,24.8,35.6,8.6,24.5,36.9,8.8,5.73,1.89,4.1,28.5
2015-08-17 01:02:00,0.0,1.96189,0.00050,383.176,0.120,1.4014,0.0024,140.002,45.000,34423.66034,1.99022,389.942,34.111,45.068,45.000,0.00,0.10,-272.73,-272.79,-8,999,-7,24.8,35.4,8.5,24.5,36.7,8.8,5.73,1.89,4.1,28.5
2015-08-17 01:03:00,0.0,1.96098,0.00039,383.284,0.111,1.3994,0.0015,140.002,45.000,34423.24881,1.98932,390.029,34.125,45.068,45.000,0.00,0.10,-272.73,-272.79,-9,1000,-7,24.8,35.3,8.4,24.5,36.7,8.7,5.73,1.89,4.1,28.5
2015-08-17 01:04:00,0.0,1.96113,0.00052,383.284,0.148,1.3882,0.0055,139.997,45.000,34421.11418,1.98910,389.984,34.125,45.068,45.000,0.00,0.10,-272.73,-272.80,-8,1000,-7,24.8,35.0,8.3,24.5,36.3,8.6,5.73,1.89,4.1,28.5
2015-08-17 01:05:00,0.0,1.96166,0.00044,383.288,0.139,1.3858,0.0029,140.001,45.000,34422.13209,1.98963,389.973,34.125,45.068,45.000,0.00,0.10,-272.72,-272.79,-8,999,-7,24.8,35.0,8.3,24.5,36.3,8.6,5.73,1.89,4.1,28.5
2015-08-17 01:06:00,0.0,1.96140,0.00059,383.390,0.132,1.3867,0.0022,140.002,45.000,34423.71900,1.98947,390.084,34.130,45.068,45.000,0.00,0.10,-272.72,-272.79,-8,1000,-7,24.8,35.0,8.3,24.5,36.3,8.6,5.73,1.88,4.1,28.6
2015-08-17 01:07:00,0.0,1.96118,0.00037,383.189,0.152,1.3794,0.0034,140.005,45.000,34424.30247,1.98900,389.842,34.126,45.068,45.000,0.00,0.10,-272.73,-272.80,-8,999,-7,24.9,34.8,8.3,24.5,36.1,8.5,5.73,1.89,4.1,28.6
2015-08-17 01:08:00,0.0,1.96153,0.00037,383.262,0.162,1.3787,0.0025,139.999,45.000,34421.99364,1.98939,389.909,34.145,45.068,45.000,0.00,0.10,-272.73,-272.79,-8,999,-7,24.8,34.7,8.2,24.6,36.0,8.5,5.73,1.89,4.2,28.6
2015-08-17 01:09:00,0.0,1.96124,0.00035,383.401,0.140,1.3657,0.0058,140.000,45.000,34424.54695,1.98879,389.985,34.151,45.068,45.000,0.00,0.10,-272.73,-272.79,-8,999,-7,24.9,34.3,8.0,24.5,35.7,8.3,5.73,1.89,4.1,28.6
2015-08-17 01:10:00,0.0,1.96182,0.00063,383.455,0.107,1.3590,0.0030,140.000,45.000,34424.08871,1.98927,390.017,34.176,45.068,45.000,0.00,0.10,-272.73,-272.79,-9,1000,-7,24.9,34.2,8.0,24.6,35.4,8.2,5.73,1.89,4.1,28.5
2015-08-17 01:11:00,0.0,1.96129,0.00041,383.212,0.150,1.3583,0.0024,139.996,45.000,34422.19979,1.98867,389.765,34.169,45.068,45.000,0.00,0.10,-272.74,-272.79,-8,999,-7,24.9,34.3,8.0,24.6,35.4,8.2,5.73,1.89,4.1,28.5
2015-08-17 01:12:00,0.0,1.96160,0.00031,383.191,0.306,1.3667,0.0053,139.997,45.000,34420.73114,1.98918,389.770,34.177,45.068,45.000,0.00,0.10,-272.73,-272.79,-9,999,-7,24.9,34.5,8.1,24.6,35.6,8.4,5.73,1.89,4.2,28.6
2015-08-17 01:13:00,0.0,1.96193,0.00039,383.445,0.130,1.3626,0.0035,139.996,45.000,34422.30002,1.98937,390.010,34.183,45.068,45.000,0.00,0.10,-272.73,-272.79,-9,999,-7,24.9,34.2,8.0,24.6,35.5,8.3,5.73,1.89,4.2,28.6
2015-08-17 01:14:00,0.0,1.96260,0.00054,383.599,0.121,1.3477,0.0045,139.996,45.000,34423.14971,1.98986,390.103,34.186,45.068,45.000,0.00,0.10,-272.73,-272.80,-9,1000,-7,24.9,33.8,7.8,24.6,35.1,8.1,5.73,1.88,4.2,28.6
2015-08-17 01:15:00,0.0,1.96255,0.00066,383.446,0.141,1.3423,0.0034,140.002,45.000,34424.06078,1.98954,389.911,34.192,45.068,45.000,0.00,0.10,-272.73,-272.79,-9,999,-7,24.9,33.8,7.9,24.6,34.9,8.1,5.73,1.89,4.2,28.6
2015-08-17 01:16:00,0.0,1.96292,0.00042,383.541,0.104,1.3433,0.0019,140.001,45.000,34425.22504,1.99007,390.017,34.198,45.068,45.000,0.00,0.10,-272.72,-272.79,-9,999,-7,24.9,33.7,7.8,24.6,34.9,8.1,5.73,1.89,4.2,28.6
2015-08-17 01:17:00,0.0,1.96297,0.00040,383.444,0.143,1.3456,0.0041,140.001,45.000,34425.53331,1.99013,389.934,34.195,45.068,45.000,0.00,0.10,-272.73,-272.79,-9,999,-7,24.9,33.9,7.9,24.6,35.0,8.1,5.73,1.89,4.2,28.6
2015-08-17 01:18:00,0.0,1.96264,0.00029,383.339,0.207,1.3563,0.0028,139.999,45.000,34424.99253,1.99003,389.872,34.193,45.068,45.000,0.00,0.10,-272.73,-272.80,-9,1000,-7,24.9,34.1,8.0,24.6,35.2,8.2,5.73,1.89,4.2,28.6
2015-08-17 01:19:00,0.0,1.96298,0.00046,383.503,0.174,1.3456,0.0071,140.001,45.000,34427.62942,1.99013,389.999,34.193,45.068,45.000,0.00,0.10,-272.73,-272.79,-9,1000,-7,24.9,33.6,7.8,24.6,35.0,8.1,5.73,1.90,4.2,28.6
2015-08-17 01:20:00,0.0,1.96308,0.00039,383.565,0.140,1.3384,0.0035,139.997,45.000,34426.72209,1.99007,390.009,34.205,45.068,45.000,0.00,0.10,-272.73,-272.79,-8,1000,-7,24.9,33.5,7.8,24.6,34.7,8.0,5.73,1.89,4.2,28.6
2015-08-17 01:21:00,0.0,1.96337,0.00034,383.626,0.151,1.3326,0.0029,139.999,45.000,34424.61543,1.99027,390.043,34.225,45.068,45.000,0.00,0.10,-272.74,-272.80,-8,1000,-7,24.9,33.3,7.7,24.6,34.5,7.9,5.73,1.89,4.2,28.6
2015-08-17 01:22:00,0.0,1.96324,0.00027,383.703,0.138,1.3209,0.0041,140.000,45.000,34427.04233,1.98988,390.069,34.231,45.068,45.000,0.00,0.10,-272.73,-272.79,-8,1000,-7,24.9,33.1,7.6,24.6,34.2,7.8,5.73,1.89,4.2,28.6
2015-08-17 01:23:00,0.0,1.96336,0.00031,383.718,0.113,1.3220,0.0050,140.002,45.000,34428.19621,1.99004,390.089,34.250,45.068,45.000,0.00,0.10,-272.73,-272.79,-8,1000,-7,24.9,33.0,7.5,24.6,34.2,7.8,5.73,1.89,4.2,28.7
2015-08-17 01:24:00,0.0,1.96372,0.00034,383.849,0.112,1.3062,0.0042,139.999,45.000,34430.09324,1.99003,390.148,34.249,45.068,45.000,0.00,0.10,-272.73,-272.79,-8,1000,-7,24.9,32.6,7.3,24.7,33.8,7.6,5.73,1.90,4.2,28.6
2015-08-17 01:25:00,0.0,1.96361,0.00032,383.860,0.081,1.3003,0.0034,139.999,45.000,34429.41617,1.98982,390.125,34.250,45.068,45.000,0.00,0.10,-272.73,-272.79,-8,1000,-7,25.0,32.4,7.3,24.7,33.6,7.6,5.73,1.89,4.2,28.6
2015-08-17 01:26:00,0.0,1.96370,0.00025,383.746,0.135,1.3012,0.0057,140.001,45.000,34428.64642,1.98994,390.007,34.251,45.068,45.000,0.00,0.10,-272.73,-272.79,-9,1000,-7,25.0,32.6,7.4,24.7,33.6,7.6,5.73,1.89,4.2,28.6
2015-08-17 01:27:00,0.0,1.96391,0.00024,383.851,0.090,1.2986,0.0038,140.003,45.000,34427.31589,1.99009,390.111,34.251,45.068,45.000,0.00,0.10,-272.73,-272.79,-9,1000,-7,25.0,32.4,7.3,24.7,33.6,7.6,5.73,1.89,4.2,28.6
2015-08-17 01:28:00,0.0,1.96390,0.00042,383.683,0.111,1.2940,0.0052,140.002,45.000,34427.75854,1.98998,389.909,34.259,45.068,45.000,0.00,0.10,-272.73,-272.79,-9,1000,-7,25.0,32.3,7.3,24.7,33.4,7.5,5.73,1.89,4.2,28.7
2015-08-17 01:29:00,0.0,1.96425,0.00039,383.773,0.202,1.2858,0.0038,140.003,45.000,34428.99133,1.99017,389.974,34.265,45.068,45.000,0.00,0.10,-272.73,-272.79,-9,1000,-7,25.0,32.0,7.2,24.7,33.2,7.4,5.73,1.89,4.3,28.7
2015-08-17 01:30:00,0.0,1.96458,0.00031,383.581,0.275,1.2985,0.0103,139.999,45.000,34426.61437,1.99073,389.813,34.260,45.068,45.000,0.00,0.10,-272.73,-272.79,-9,999,-7,25.0,32.5,7.4,24.7,33.5,7.5,5.73,1.89,4.3,28.7
2015-08-17 01:31:00,0.0,1.96523,0.00044,383.820,0.085,1.2870,0.0048,139.995,45.000,34425.57681,1.99116,390.024,34.267,45.068,45.000,0.00,0.10,-272.73,-272.80,-9,1000,-7,25.0,32.0,7.2,24.7,33.2,7.4,5.73,1.89,4.3,28.7
2015-08-17 01:32:00,0.0,1.96536,0.00039,383.838,0.091,1.2878,0.0023,140.002,45.000,34429.13491,1.99131,390.032,34.279,45.068,45.000,0.00,0.10,-272.73,-272.80,-9,1000,-7,25.0,32.1,7.2,24.7,33.2,7.4,5.73,1.90,4.3,28.8
2015-08-17 01:33:00,0.0,1.96590,0.00049,383.756,0.123,1.2856,0.0025,139.999,45.000,34429.63149,1.99176,389.951,34.292,45.068,45.000,0.00,0.10,-272.72,-272.79,-9,999,-7,25.0,32.1,7.2,24.7,33.2,7.4,5.73,1.89,4.3,28.8
2015-08-17 01:34:00,0.0,1.96579,0.00033,383.753,0.218,1.2896,0.0056,139.998,45.000,34429.72099,1.99184,389.953,34.305,45.068,45.000,0.00,0.10,-272.73,-272.79,-9,1000,-7,25.0,32.3,7.3,24.7,33.2,7.4,5.73,1.89,4.3,28.8
2015-08-17 01:35:00,0.0,1.96652,0.00046,383.914,0.171,1.2909,0.0072,139.996,45.000,34426.72620,1.99252,390.127,34.308,45.068,45.000,0.00,0.10,-272.73,-272.79,-9,1000,-7,25.0,32.0,7.2,24.7,33.3,7.5,5.73,1.90,4.3,28.7
2015-08-17 01:36:00,0.0,1.96717,0.00035,383.955,0.090,1.2794,0.0068,139.995,45.000,34426.73200,1.99299,390.128,34.313,45.068,45.000,0.00,0.10,-272.73,-272.79,-8,1000,-7,25.0,31.8,7.1,24.7,33.0,7.3,5.73,1.89,4.3,28.7
2015-08-17 01:37:00,0.0,1.96698,0.00043,383.875,0.177,1.2866,0.0020,140.004,45.000,34429.98242,1.99295,390.067,34.313,45.068,45.000,0.00,0.10,-272.73,-272.79,-8,1000,-7,25.0,32.0,7.1,24.7,33.1,7.4,5.73,1.90,4.3,28.7
2015-08-17 01:38:00,0.0,1.96756,0.00048,384.056,0.125,1.2708,0.0050,140.002,45.000,34431.93474,1.99315,390.168,34.317,45.068,45.000,0.00,0.10,-272.73,-272.79,-9,1000,-7,25.0,31.5,6.9,24.7,32.7,7.2,5.73,1.90,4.3,28.7
2015-08-17 01:39:00,0.0,1.96799,0.00026,384.126,0.091,1.2549,0.0052,139.998,45.000,34431.20212,1.99332,390.176,34.315,45.068,45.000,0.00,0.10,-272.72,-272.79,-9,1000,-7,25.0,31.2,6.8,24.7,32.3,7.1,5.73,1.89,4.3,28.7
2015-08-17 01:40:00,0.0,1.96735,0.00050,383.718,0.177,1.2721,0.0081,140.000,45.000,34430.49141,1.99305,389.840,34.317,45.068,45.000,0.00,0.10,-272.72,-272.79,-9,1000,-7,25.0,31.8,7.1,24.7,32.7,7.2,5.73,1.90,4.3,28.7
2015-08-17 01:41:00,0.0,1.96790,0.00054,384.036,0.147,1.2699,0.0199,139.996,45.000,34429.46313,1.99349,390.156,34.313,45.068,45.000,0.00,0.10,-272.73,-272.80,-9,1000,-7,25.1,31.1,6.8,24.7,32.7,7.2,5.73,1.90,4.3,28.8
2015-08-17 01:42:00,0.0,1.96882,0.00040,384.053,0.095,1.2483,0.0090,140.002,45.000,34431.11325,1.99397,390.044,34.327,45.068,45.000,0.00,0.10,-272.72,-272.79,-9,1000,-7,25.1,31.0,6.7,24.7,32.0,6.9,5.73,1.89,4.3,28.8
2015-08-17 01:43:00,0.0,1.96942,0.00036,384.047,0.116,1.2488,0.0037,140.004,45.000,34431.90086,1.99459,390.057,34.329,45.068,45.000,0.00,0.10,-272.72,-272.78,-9,999,-7,25.1,31.0,6.7,24.7,32.0,6.9,5.73,1.90,4.4,28.8
2015-08-17 01:44:00,0.0,1.96960,0.00043,384.046,0.073,1.2572,0.0044,139.998,45.000,34429.39926,1.99498,390.093,34.335,45.068,45.000,0.00,0.10,-272.73,-272.79,-9,1000,-7,25.1,31.1,6.8,24.7,32.2,7.0,5.73,1.89,4.3,28.8
2015-08-17 01:45:00,0.0,1.96968,0.00035,384.113,0.097,1.2485,0.0038,140.001,45.000,34433.12954,1.99487,390.129,34.340,45.068,45.000,0.00,0.10,-272.73,-272.79,-9,999,-7,25.1,30.9,6.7,24.7,32.0,6.9,5.73,1.89,4.3,28.8
2015-08-17 01:46:00,0.0,1.96929,0.00030,383.795,0.172,1.2586,0.0083,139.998,45.000,34431.68560,1.99472,389.840,34.366,45.068,45.000,0.00,0.10,-272.72,-272.78,-9,999,-7,25.1,31.3,6.9,24.8,32.2,7.0,5.73,1.90,4.4,28.8
2015-08-17 01:47:00,0.0,1.96939,0.00026,383.897,0.061,1.2568,0.0069,140.002,45.000,34435.44139,1.99474,389.952,34.373,45.068,45.000,0.00,0.10,-272.73,-272.80,-9,1000,-7,25.1,31.1,6.8,24.8,32.2,7.0,5.73,1.89,4.4,28.8